Погода в Погиби

Погода в Погиби : погода сейчас, прогноз погоды и архив. Всё, что Вы хотите узнать о погоде в Погиби!

Хотите узнать прогноз погоды в Погиби? Тогда Вам сюда: Погода в Погиби

Поиск расширенной информации на нашем сайте:

Другие новости

Новости СМИ2

Главная страница сайта

Новости сайта

02.10.2013

Напоминаем, что на нашем новом сайте вы можете получить высокодетализированные прогнозы погоды по пунктам России, СНГ и мира (включающие важные для авиации метеовеличины, такие как направление и скорость ветра, видимость, явления погоды, количество и форма облачности, нижняя и верхняя граница облачности), а также ознакомиться с разнообразными материалами по авиационной метеорологии и подборкой полезных ссылок на эту тему.

Сайт Метеоцентр.Азия посвящён разработке технологий оптимизации авиаметеорологического обслуживания, включая проектирование и перспективное создание нескольких автоматизированных авиаметеорологических систем:
- система выпуска высокодетальных прогностических карт явлений погоды для нижнего воздушного пространства по России и ближнему зарубежью;
- система верификации прогнозов TAF (выпускаемых синоптиками официальных АМСГ РФ и ближнего зарубежья) и AUTOTAF (выпускаемых сайтом Метеоцентр.Азия) - выявление ошибок, онлайн-сопоставление с фактической погодой METAR, автоматическое внесение коррективов в прогнозы при резком отклонении фактической погоды от прогноза, подсчёт оправдываемости прогнозов по элементам и в целом;
- система обработки, анализа и отображения авиаметеорологической информации для применения провайдерами метеорологической информации.

Рекомендуем: диагностика болезней http://handcent.ru/

Погода в Погиби - сегодня

Время (UTC), дата Ветер
(°,м/с) 
Видим.   Явления Облачность Т
(°С)
Тd
(°С)
f(%) Тe
(°С)
Pmin
(гПа)
dP
(гПа)
Po
(мм)
O2
(г/м3)
Тmin Tmax R s Состояние
почвы
06 21.02.17 340 (С) 3-4{07}  20000 м    4/0 верхняя 
[Ci sp]
-9.6 -14.2 69 -13  1012.2  0.7  758  318           
09 21.02.17 340 (С) 2-3{04}  20000 м    5/0 верхняя 
[Ci sp]
-14.2 -17.7 75 -16  1014.8  2.6  760  325    -9.4       
12 21.02.17 340 (С) 2-3{04}  20000 м    ясно 
-16.3 -19.7 75 -19  1015.5  0.7  761  328           
15 21.02.17 270 (З) 2-3{04}  20000 м    ясно 
-17.3 -21.6 69 -20  1015.5  761  329           
18 21.02.17 270 (З) 3{06}  20000 м    3/0 120 м верхняя 
[Ci sp]
-18.7 -22.8 70 -23  1015.7  -0.2  761  331           
21 21.02.17 340 (С) 2-3{04}  20000 м    6/0 средняя, верхняя 
[Ac trans|Ci sp]
-19.7 -23.8 70 -22  1015.9  0.2  761  332  -20      71  очень
неравномерный
сухой снег
(сугробы, заносы) 
00 22.02.17 140 (ЮВ) 2-3{04}  20000 м    6/0 средняя, верхняя 
[Ac trans|Ci sp]
-18.9 -23 70 -22  1015.4  -0.5  761  331           
03 22.02.17 140 (ЮВ) 2-3{04}  20000 м    4/0 верхняя 
[Ci sp]
-10.3 -16.6 60 -12  1013.9  -1.5  760  320           
06 22.02.17 020 (С) 2-3{04}  20000 м    5/0 средняя, верхняя 
[Ac trans|Ci sp]
-8.6 -15.1 59 -10  1012.2  -1.7  758  317           
09 22.02.17 360 (С) 2-3{04}  20000 м    5/0 средняя, верхняя 
[Ac trans|Ci sp]
-13.4 -19.5 60 -16  1011.9  -0.3  758  323    -7.5       
12 22.02.17 360 (С) 2-3{04}  20000 м    4/0 верхняя 
[Ci sp]
-19.5 -23.6 70 -22  1011.5  -0.4  758  331           
15 22.02.17 360 (С) 2-3{04}  20000 м    3/0 верхняя 
[Ci sp]
-20.7 -24 75 -24  1011.4  -0.1  758  332           
18 22.02.17 360 (С) 2-3{04}  20000 м    5/0 средняя, верхняя 
[Ac trans|Ci sp]
-21.5 -24 80 -24  1010.6  -0.8  757  333           
21 22.02.17 360 (С) 2-3{04}  20000 м    6/3 600 м кучево-дожд., средняя 
[Cb cap|Ac trans]
-22.7 -24.6 84 -26  1010.2  -0.4  757  334  -22.8      71  очень
неравномерный
сухой снег
(сугробы, заносы) 
00 23.02.17 360 (С) 2-3{04}  20000 м    5/0 средняя, верхняя 
[Ac trans|Ci sp]
-20.9 -23.4 80 -24  1009.4  -0.8  756  331           
03 23.02.17 140 (ЮВ) 2-3{03}  20000 м    3/0 верхняя 
[Ci sp]
-12.8 -17.1 70 -15  1007.9  -1.5  755  321           
06 23.02.17 140 (ЮВ) 2-3{03}  20000 м    3/0 верхняя 
[Ci sp]
-12 -18.2 60 -14  1006.4  -1.5  754  319           
09 23.02.17 340 (С) 1-2{03}  20000 м    3/0 верхняя 
[Ci sp]
-18.9 -23 70 -19  1006.6  0.2  754  328    -11.5       
12 23.02.17 320 (СЗ) 1-2{02}  20000 м    ясно 
-23.5 -26.8 74 -24  1007.2  0.6  755  335           
15 23.02.17 020 (С) 2-3{03}  20000 м    ясно 
-24.5 -27 80 -28  1006.8  -0.4  754  336           
18 23.02.17 020 (С) 2-2{03}  20000 м    ясно 
-25 -27.4 80 -28  1006.5  -0.3  754  336           
21 23.02.17 140 (ЮВ) 2-3{03}  20000 м    4/0 средняя, верхняя 
[Ac trans|Ci sp]
-28.1 -29.8 85 -32  1006.4  -0.1  754  341  -28.3      71  очень
неравномерный
сухой снег
(сугробы, заносы) 
00 24.02.17 070 (В) 2-3{04}  20000 м    6/0 средняя, верхняя 
[Ac trans|Ci sp]
-21.4 -23.9 80 -24  1006.3  -0.1  754  331           
03 24.02.17 140 (ЮВ) 2-3{04}  20000 м    4/0 верхняя 
[Ci fib]
-12.1 -18.3 60 -14  1005.9  -0.4  754  319           
06 24.02.17 140 (ЮВ) 2-3{04}  20000 м    4/0 верхняя 
[Ci sp]
-10.4 -17.7 55 -12  1004.8  -1.1  753  317           
Время (UTC), дата Ветер
(°,м/с) 
Видим.   Явления Облачность Т
(°С)
Тd
(°С)
f(%) Тe
(°С)
Pmin
(гПа)
dP
(гПа)
Po
(мм)
O2
(г/м3)
Тmin Tmax R s Состояние
почвы

Для получения пояснительной информации подведите курсор к названию столбца.

ПОГОДА в Погиби - архив

Всё, что Вы хотите узнать о погоде в Погиби - удобно и подробно!

Выберите нужную дату (начиная с 1 января 2015* года) и нажмите кнопку "Найти".
Будут отображены архивные сводки погоды по пункту Погиби, начиная с указанной даты.


Отображать данные в формате CSV (для использования в таблицах Excel)


Внимание! Наш архив погоды предназначен исключительно для личного некоммерческого использования в познавательных целях. Если Вам необходимы официальные справки о состоянии погоды (для производственных, юридических, коммерческих и т.п. целей), обращайтесь в органы Росгидромета.

*Примечание: данная дата относится к архиву по метеостанциям СССР (Россия, СНГ, Балтия).
Архив по метеостанциям Зарубежной Европы и Азии (кроме Китая) хранится 10 дней, по другим регионам земного шара (Китай, Африка, Америка, Австралия, Океания) - 1 день.

Погиби - район местоположения метеостанции


Название, широта, долгота, высота метеостанции:
Погиби 52.2°ш. 141.6°д. 6 м над ур. моря [Российская Федерация]

Дополнительная информация

В oтличие oт бoльшинства пoгoдных сайтoв мы публикуем пoдрoбную метеoинфoрмацию в детальнoм прoфессиoнальнoм фoрмате.

Характеристики температуры и влажнoсти вoздуха измеряются на высoте 2 м в тени вдали oт зданий и деревьев.
Скoрoсть ветра измеряется на высoте 10 м (на урoвне рoста челoвека скoрoсть ветра ниже в 1.5-2 раза). Если метеoстанция нахoдится в гoрoде или в лесу, тo скoрoсть ветра занижена на 2-4 м/с пo сравнению с oткрытым местoм. Скoрoсть ветра над акватoриями крупных рек и oзёр, а также на вершинах хoлмoв на 2-5 м/с выше, чем в oбычных услoвиях.
Атмoсфернoе давление в разных тoчках местнoсти мoжет значительнo oтличаться oт давления на метеoстанции, в зависимoсти oт услoвий рельефа (при пoдъёме на 10 м давление пoнижается примернo на 1 мм рт.ст.).